Terug naar catalogus

SL-12 R/B

AUX MOTOR

ActiefLEO
NORAD 15338·ROCKET BODY·🇷🇺 Russia

Gelanceerd Sep 28, 1984 vanaf Baikonur Cosmodrome

Loading…

Volgende Passages (komende 24 uur)

TLE

VersSource: Space-Track

Epoch: Sep 14, 2026, 08:50 UTC

1 15338U 84106F   26257.36826204 -.00000005  00000-0  37900-4 0  9991
2 15338  66.5716  36.8931 0020276 260.7155  99.1643 14.19326863170885

Volg SL-12 R/B in realtime met AllMySat

Download on the App Store